STARLINK-2156, 47742

Orbit data source: Space-Track

STARLINK-2156, 47742 is a payload satellite owned by SpaceX/Seattle (US) in LEO that was launched on Thu, 04 Mar 2021 UTC via an FALCON 9 launch vehicle from the Air Force Eastern Test Range (AFETR). Payload-class satellites include a variety of spacecraft equipped with specific instruments for various scientific and technological missions. These include communications satellites like Starlink; space stations such as the ISS; scientific satellites like the Hubble; Earth observation satellites from companies like Planet Labs, Umbra, and HawkEye 360; GPS; miniature CubeSats for education and research; and military/defense satellites.

Loading next visibility...
Identifier
47742, 2021-017W
Orbit
LEO
Country
Flag of USUS
Related business
Manufacturer
SpaceX/Seattle
Mission
Operational Commercial Communications
Bus & Motor
STARLINK, Unknown motor
Mass
260 kg wet, ~248 kg dry
Launch date (UTC)
2021-03-04 (5 years ago)
Launch vehicle
FALCON 9
Launch site
Air Force Eastern Test Range (AFETR)
Object type
Payload
Rocket body
Debris
Shape & HBR
Box + 1 Pan, 10.1 m
Radar Cross Section
13.562 m², Large (>1 m²)

Expand to show TLE details & history
Last TLE update: 17 hours ago

TLE from 17 hours ago
0 STARLINK-2156
1 47742U 21017W   26235.82451874  .00000586  00000-0  30652-4 0  9991
2 47742  53.1606 136.3953 0001443  99.8263 260.2901 15.31692838303648
Epoch: 2026-08-23T19:47Z
TLE epoch observation values (Epoch: 2026-08-23T19:47:18.419Z)
Latitude
-0.00004°
Longitude
-132.5465°
Altitude
471.829 km
Speed
7.631 km/s
True Right ascension
09h 05m 34s
True Declination
0° 00' 00"
Sunlit
Object was in daylight at epoch
Visualization orbit readout
Latitude
Unknown
Longitude
Unknown
Altitude
Unknown
Speed
Unknown
Apparent Right ascension
Unknown
Apparent Declination
Unknown
Sunlit
N/A
Visualization observer readout
Local Sidereal Time
04:19:40
Azimuth
Unknown
Elevation
Unknown
Doppler factor
Unknown
Orbital elements
Apogee altitude
472.006 km
Perigee altitude
470.03 km
Semi-major axis
6,849.155 km
Eccentricity
0.00014
Inclination
53.1606°
RAAN
136.3953°
Arg. of periapsis
99.8263°
True anomaly
260.2738°
Mean anomaly
260.2901°
Eccentric anomaly
260.28195°
Mean motion
3.82902 °/min
Orbital period
94.02 mins
BSTAR
0.000030652
Loading maneuver chart data...
Computing Atmospheric mass density...

Documentation

Showing up to 5 results
|